CW9353 Weather Reports


Display with metric or nautical units.
time (UTC)temp
F
wind
direction
speed
MPH
gust
MPH
rain 1hr
in
rain 24hr
in
rain mn
in
humidity
%
barometer
mb
20260502183010 70 27 0.0 0.0 0.00 0.00 0.00 25 1014.3
20260502181506 69 72 0.0 0.0 0.00 0.00 0.00 26 1014.3
20260502163048 64 194 0.0 0.0 0.00 0.00 0.00 30 1015.1
20260502161545 63 180 0.0 0.0 0.00 0.00 0.00 30 1015.2
20260502151537 58 174 0.0 0.0 0.00 0.00 0.00 35 1016.0
20260502123011 39 166 0.0 0.0 0.00 0.00 0.00 57 1015.6
20260502121511 39 166 0.0 0.0 0.00 0.00 0.00 58 1015.6
20260502114507 41 165 0.0 0.0 0.00 0.00 0.00 52 1015.2
20260502113007 42 165 0.0 0.0 0.00 0.00 0.00 48 1015.1
20260502111606 43 165 0.0 0.0 0.00 0.00 0.00 46 1015.1
20260502110005 43 166 0.0 0.0 0.00 0.00 0.00 47 1015.1
20260502104505 44 167 0.0 0.0 0.00 0.00 0.00 46 1015.2
20260502103011 44 167 0.0 0.0 0.00 0.00 0.00 46 1015.1
20260502101504 43 167 0.0 0.0 0.00 0.00 0.00 48 1015.0
20260502070038 47 167 0.0 0.0 0.00 0.00 0.00 38 1015.3
20260502064550 48 167 0.0 0.0 0.00 0.00 0.00 37 1015.3
20260502063035 50 167 0.0 0.0 0.00 0.00 0.00 34 1015.2
20260502061529 50 167 0.0 0.0 0.00 0.00 0.00 34 1015.2
20260502060028 51 167 0.0 0.0 0.00 0.00 0.00 32 1015.2
20260502054529 52 167 0.0 0.0 0.00 0.00 0.00 31 1015.2
20260502053025 51 167 0.0 0.0 0.00 0.00 0.00 32 1015.1
20260502051531 52 167 0.0 0.0 0.00 0.00 0.00 32 1015.2
20260502050029 51 167 0.0 0.0 0.00 0.00 0.00 34 1015.3
20260502044533 53 167 0.0 0.0 0.00 0.00 0.00 31 1015.2
20260502043024 53 167 0.0 0.0 0.00 0.00 0.00 31 1015.3
20260502041524 53 167 0.0 0.0 0.00 0.00 0.00 31 1015.3
20260502040035 52 167 0.0 0.0 0.00 0.00 0.00 35 1015.3
20260502034526 55 167 0.0 0.0 0.00 0.00 0.00 32 1015.0
20260502033021 60 167 0.0 0.0 0.00 0.00 0.00 27 1014.8
20260502031520 60 167 0.0 0.0 0.00 0.00 0.00 26 1014.7
20260502030023 61 167 0.0 0.0 0.00 0.00 0.00 26 1014.6
20260502024523 62 167 0.0 0.0 0.00 0.00 0.00 25 1014.6
20260502023019 62 167 0.0 0.0 0.00 0.00 0.00 25 1014.5
20260502021517 63 167 0.0 0.0 0.00 0.00 0.00 25 1014.3
20260502020018 64 167 0.0 0.0 0.00 0.00 0.00 23 1014.2
20260502014536 65 167 0.0 0.0 0.00 0.00 0.00 24 1014.1
20260502013017 66 167 0.0 0.0 0.00 0.00 0.00 22 1014.2
20260502011515 67 167 0.0 0.0 0.00 0.00 0.00 20 1014.2
20260502010015 68 167 0.0 0.0 0.00 0.00 0.00 20 1014.2
20260502004521 69 167 0.0 0.0 0.00 0.00 0.00 20 1014.1
20260502003013 69 167 0.0 0.0 0.00 0.00 0.00 19 1014.2
20260502001522 70 166 0.0 0.0 0.00 0.00 0.00 19 1014.2
20260502000011 70 169 0.0 0.0 0.00 0.00 0.00 20 1014.3
20260501234510 70 166 0.0 0.0 0.00 0.00 0.00 19 1014.5
20260501233010 70 165 0.0 0.0 0.00 0.00 0.00 19 1014.6
20260501231507 71 168 0.0 0.0 0.00 0.00 0.00 19 1014.7
20260501230006 70 175 0.0 0.0 0.00 0.00 0.00 20 1014.9
20260501224505 70 197 0.0 0.0 0.00 0.00 0.00 19 1015.0
20260501223010 70 163 0.0 0.0 0.00 0.00 0.00 21 1015.0
20260501221600 70 179 0.0 0.0 0.00 0.00 0.00 19 1015.4
20260501220058 70 150 0.0 0.0 0.00 0.00 0.00 20 1015.5
20260501214557 70 193 0.0 0.0 0.00 0.00 0.00 21 1015.7
20260501213057 70 169 0.0 0.0 0.00 0.00 0.00 23 1015.9
20260501211553 69 210 0.0 0.0 0.00 0.00 0.00 22 1016.2
20260501210056 69 204 0.0 0.0 0.00 0.00 0.00 22 1016.4
20260501204549 68 177 0.0 0.0 0.00 0.00 0.00 23 1016.5
20260501203048 69 200 0.0 0.0 0.00 0.00 0.00 24 1016.6
20260501201545 68 139 0.0 0.0 0.00 0.00 0.00 23 1016.6
20260501200043 67 171 0.0 0.0 0.00 0.00 0.00 25 1016.8
20260501194541 67 158 0.0 0.0 0.00 0.00 0.00 25 1016.9
20260501193039 66 178 0.0 0.0 0.00 0.00 0.00 26 1016.8
20260501191535 66 223 0.0 0.0 0.00 0.00 0.00 27 1017.2
20260501190036 65 206 0.0 0.0 0.00 0.00 0.00 27 1017.4
20260501184530 64 227 0.0 0.0 0.00 0.00 0.00 27 1017.5